Location: Anne Acres
(38.7004°N, 75.0827°W)
Time: 12:35:35
(UTC+00:00)

Envisat - Pass Details

Date: 04 October 2024
Orbit: 761 x 763 km, 98.3° (Epoch: 06 November)

Event Time Altitude Azimuth Distance (km) Brightness Sun altitude
Rises 08:49:54 0° 3° (N) 3,234 6.5 -25.9°
Reaches altitude 10° 08:52:21 10° 355° (N) 2,303 5.6 -25.4°
Enters shadow 08:54:55 26° 334° (NNW) 1,481 4.3 -24.9°
